ASTRO-H (HITOMI)

Last updated on Fri Sep 11 2026 00:02:08 GMT+0000 (Coordinated Universal Time)

1 41337U 16012A 26253.40033982 .00002012 00000+0 11234-3 0 9993 2 41337 30.9980 243.7070 0009378 30.6524 329.4661 15.10845725580180
UTC large
Height (km)
Speed (km/s)
/
Latitude / Longitude
Inclination (degrees)
Orbital Period (minutes)
Azimuth
Elevation
Range (km)
Doppler Factor

Next 0 passes for location: London (51.5072 / 0.1276)

No passes found over London.
ASTRO-H (HITOMI)